Terminal Aerodrome Forecast
Issued by NWS Pocatello, ID

Home | Current Version | Previous Version | Text Only | Print | Product List | Glossary On
Versions: 1 2 3 4 5 6 7 8 9 10 11 12 13 14
884
FTUS45 KPIH 291720
TAFBYI
TAF
KBYI 291720Z 2918/3018 VRB04KT P6SM FEW080
     FM292100 27008KT P6SM VCTS FEW100CB
     FM300000 18010KT P6SM VCTS SCT090CB SCT250
     FM300300 VRB05KT P6SM VCSH SCT100 SCT160
     FM301200 25010KT P6SM FEW070=

USA.gov is the U.S. government's official web portal to all federal, state and local government web resources and services.